| time (UTC) | temp F | wind direction | speed MPH | gust MPH | rain 1hr in | rain 24hr in | rain mn in | humidity % | barometer mb |
| 20260904051002 | 68 | 224 | 2.0 | 8.0 | 0.00 | 0.18 | 0.00 | 96 | 1011.1 |
| 20260904050024 | 68 | 59 | 3.0 | 8.0 | 0.00 | 0.18 | 0.00 | 96 | 1011.0 |
| 20260904045003 | 68 | 162 | 1.0 | 7.0 | 0.00 | 0.18 | 0.00 | 96 | 1011.3 |
| 20260904044003 | 69 | 229 | 4.0 | 7.0 | 0.00 | 0.18 | 0.00 | 96 | 1011.4 |
| 20260904043002 | 69 | 52 | 5.0 | 7.0 | 0.00 | 0.18 | 0.00 | 96 | 1011.3 |
| 20260904042003 | 69 | 37 | 3.0 | 6.0 | 0.00 | 0.18 | 0.00 | 96 | 1011.8 |
| 20260904041003 | 69 | 94 | 3.0 | 6.0 | 0.00 | 0.18 | 0.00 | 96 | 1011.5 |
| 20260904040004 | 69 | 46 | 4.0 | 6.0 | 0.00 | 0.18 | 0.00 | 96 | 1011.4 |
| 20260904035003 | 69 | 82 | 0.0 | 2.0 | 0.00 | 0.18 | 0.18 | 95 | 1011.4 |
| 20260904034003 | 69 | 98 | 1.0 | 3.0 | 0.00 | 0.18 | 0.18 | 95 | 1011.5 |
| 20260904033025 | 70 | 58 | 0.0 | 3.0 | 0.00 | 0.18 | 0.18 | 95 | 1011.9 |
| 20260904032003 | 70 | 84 | 1.0 | 3.0 | 0.00 | 0.18 | 0.18 | 95 | 1011.8 |
| 20260904031003 | 70 | 167 | 1.0 | 3.0 | 0.00 | 0.18 | 0.18 | 95 | 1011.3 |
| 20260904030003 | 70 | 160 | 1.0 | 3.0 | 0.00 | 0.18 | 0.18 | 94 | 1011.6 |
| 20260904025004 | 70 | 132 | 0.0 | 2.0 | 0.00 | 0.18 | 0.18 | 94 | 1011.8 |
| 20260904024004 | 70 | 65 | 0.0 | 2.0 | 0.00 | 0.18 | 0.18 | 94 | 1011.9 |
| 20260904023004 | 70 | 146 | 0.0 | 2.0 | 0.00 | 0.18 | 0.18 | 94 | 1011.9 |
| 20260904022004 | 71 | 0 | 0.0 | 2.0 | 0.00 | 0.18 | 0.18 | 94 | 1012.1 |
| 20260904021003 | 71 | 183 | 1.0 | 2.0 | 0.00 | 0.18 | 0.18 | 94 | 1012.0 |
| 20260904020025 | 71 | 98 | 0.0 | 2.0 | 0.00 | 0.18 | 0.18 | 93 | 1012.2 |
| 20260904015003 | 71 | 146 | 1.0 | 2.0 | 0.00 | 0.18 | 0.18 | 93 | 1012.3 |
| 20260904014024 | 71 | 186 | 1.0 | 2.0 | 0.00 | 0.18 | 0.18 | 93 | 1012.3 |
| 20260904013025 | 72 | 0 | 0.0 | 2.0 | 0.00 | 0.18 | 0.18 | 93 | 1012.6 |
| 20260904012003 | 72 | 125 | 0.0 | 2.0 | 0.00 | 0.18 | 0.18 | 93 | 1012.4 |
| 20260904011025 | 71 | 192 | 0.0 | 2.0 | 0.00 | 0.18 | 0.18 | 93 | 1012.6 |
| 20260904010004 | 72 | 191 | 0.0 | 3.0 | 0.00 | 0.18 | 0.18 | 93 | 1012.3 |
| 20260904005004 | 72 | 171 | 0.0 | 3.0 | 0.00 | 0.18 | 0.18 | 93 | 1012.3 |
| 20260904004004 | 72 | 0 | 0.0 | 2.0 | 0.00 | 0.18 | 0.18 | 92 | 1012.3 |
| 20260904003025 | 72 | 175 | 0.0 | 2.0 | 0.00 | 0.18 | 0.18 | 92 | 1012.0 |
| 20260904002004 | 72 | 284 | 0.0 | 2.0 | 0.00 | 0.18 | 0.18 | 92 | 1011.8 |
| 20260904001004 | 72 | 161 | 1.0 | 2.0 | 0.00 | 0.18 | 0.18 | 92 | 1011.6 |
| 20260904000024 | 0 | 0 | 0.0 | 0.0 | 0.00 | 0.00 | 0.00 | 1 | |
| 20260904000004 | 72 | 0 | 0.0 | 3.0 | 0.00 | 0.18 | 0.18 | 91 | 1011.6 |
| 20260903235004 | 73 | 197 | 2.0 | 3.0 | 0.00 | 0.18 | 0.18 | 91 | 1011.4 |
| 20260903234004 | 73 | 170 | 0.0 | 3.0 | 0.00 | 0.18 | 0.18 | 91 | 1011.2 |
| 20260903233025 | 74 | 184 | 0.0 | 5.0 | 0.00 | 0.18 | 0.18 | 91 | 1011.4 |
| 20260903233003 | 0 | 0 | 0.0 | 0.0 | 0.00 | 0.00 | 0.00 | 1 | |
| 20260903232004 | 74 | 190 | 2.0 | 5.0 | 0.00 | 0.18 | 0.18 | 90 | 1011.3 |
| 20260903231004 | 75 | 179 | 4.0 | 5.0 | 0.00 | 0.18 | 0.18 | 90 | 1011.6 |
| 20260903230004 | 75 | 130 | 0.0 | 2.0 | 0.00 | 0.18 | 0.18 | 89 | 1011.6 |
| 20260903225004 | 75 | 154 | 0.0 | 2.0 | 0.00 | 0.18 | 0.18 | 89 | 1011.6 |
| 20260903224025 | 76 | 177 | 1.0 | 5.0 | 0.00 | 0.18 | 0.18 | 88 | 1011.8 |
| 20260903223026 | 76 | 226 | 2.0 | 5.0 | 0.00 | 0.18 | 0.18 | 88 | 1011.8 |
| 20260903223002 | 0 | 0 | 0.0 | 0.0 | 0.00 | 0.00 | 0.00 | 1 | |
| 20260903222005 | 76 | 195 | 2.0 | 6.0 | 0.00 | 0.18 | 0.18 | 88 | 1011.6 |
| 20260903222003 | 0 | 0 | 0.0 | 0.0 | 0.00 | 0.00 | 0.00 | 1 | |
| 20260903221024 | 0 | 0 | 0.0 | 0.0 | 0.00 | 0.00 | 0.00 | 1 | |
| 20260903221005 | 76 | 165 | 2.0 | 6.0 | 0.00 | 0.18 | 0.18 | 87 | 1011.6 |
| 20260903220005 | 76 | 175 | 3.0 | 6.0 | 0.00 | 0.18 | 0.18 | 87 | 1011.6 |
| 20260903220002 | 0 | 0 | 0.0 | 0.0 | 0.00 | 0.00 | 0.00 | 1 | |
| 20260903215006 | 77 | 252 | 1.0 | 3.0 | 0.00 | 0.18 | 0.18 | 87 | 1011.8 |
| 20260903215003 | 0 | 0 | 0.0 | 0.0 | 0.00 | 0.00 | 0.00 | 1 | |
| 20260903214006 | 77 | 198 | 0.0 | 4.0 | 0.00 | 0.18 | 0.18 | 88 | 1011.5 |
| 20260903214003 | 0 | 0 | 0.0 | 0.0 | 0.00 | 0.00 | 0.00 | 1 | |
| 20260903213024 | 0 | 0 | 0.0 | 0.0 | 0.00 | 0.00 | 0.00 | 1 | |
| 20260903213005 | 76 | 126 | 0.0 | 5.0 | 0.00 | 0.18 | 0.18 | 88 | 1011.8 |
| 20260903212002 | 0 | 0 | 0.0 | 0.0 | 0.00 | 0.00 | 0.00 | 1 | |
| 20260903211002 | 0 | 0 | 0.0 | 0.0 | 0.00 | 0.00 | 0.00 | 1 | |
| 20260903210959 | 77 | 137 | 2.0 | 6.0 | 0.00 | 0.18 | 0.18 | 87 | 1011.6 |
| 20260903210002 | 0 | 0 | 0.0 | 0.0 | 0.00 | 0.00 | 0.00 | 1 | |
| 20260903205959 | 78 | 229 | 3.0 | 6.0 | 0.00 | 0.18 | 0.18 | 86 | 1011.6 |
| 20260903205002 | 0 | 0 | 0.0 | 0.0 | 0.00 | 0.00 | 0.00 | 1 | |
| 20260903204958 | 78 | 224 | 2.0 | 7.0 | 0.00 | 0.18 | 0.18 | 86 | 1011.5 |
| 20260903204021 | 78 | 186 | 2.0 | 7.0 | 0.00 | 0.18 | 0.18 | 85 | 1011.6 |
| 20260903204002 | 0 | 0 | 0.0 | 0.0 | 0.00 | 0.00 | 0.00 | 1 | |
| 20260903203004 | 0 | 0 | 0.0 | 0.0 | 0.00 | 0.00 | 0.00 | 1 | |
| 20260903203000 | 78 | 167 | 4.0 | 9.0 | 0.00 | 0.18 | 0.18 | 85 | 1011.5 |
| 20260903201959 | 79 | 165 | 4.0 | 9.0 | 0.00 | 0.18 | 0.18 | 84 | 1011.6 |
| 20260903200959 | 78 | 176 | 6.0 | 9.0 | 0.00 | 0.18 | 0.18 | 85 | 1011.6 |
| 20260903200021 | 78 | 189 | 3.0 | 10.0 | 0.00 | 0.18 | 0.18 | 85 | 1011.9 |
| 20260903194959 | 78 | 192 | 4.0 | 10.0 | 0.00 | 0.18 | 0.18 | 84 | 1011.9 |
| 20260903194003 | 0 | 0 | 0.0 | 0.0 | 0.00 | 0.00 | 0.00 | 1 | |
| 20260903193959 | 78 | 186 | 5.0 | 8.0 | 0.00 | 0.18 | 0.18 | 84 | 1012.3 |
| 20260903193024 | 0 | 0 | 0.0 | 0.0 | 0.00 | 0.00 | 0.00 | 1 | |
| 20260903192959 | 78 | 171 | 4.0 | 8.0 | 0.00 | 0.18 | 0.18 | 85 | 1012.2 |
| 20260903192003 | 0 | 0 | 0.0 | 0.0 | 0.00 | 0.00 | 0.00 | 1 | |
| 20260903191959 | 78 | 181 | 4.0 | 9.0 | 0.00 | 0.18 | 0.18 | 86 | 1012.3 |
| 20260903191020 | 78 | 187 | 4.0 | 14.0 | 0.00 | 0.18 | 0.18 | 86 | 1012.6 |
| 20260903191003 | 0 | 0 | 0.0 | 0.0 | 0.00 | 0.00 | 0.00 | 1 | |
| 20260903190003 | 0 | 0 | 0.0 | 0.0 | 0.00 | 0.00 | 0.00 | 1 | |
| 20260903185959 | 78 | 197 | 5.0 | 14.0 | 0.00 | 0.18 | 0.18 | 85 | 1012.4 |
| 20260903185024 | 0 | 0 | 0.0 | 0.0 | 0.00 | 0.00 | 0.00 | 1 | |
| 20260903184959 | 77 | 173 | 6.0 | 13.0 | 0.00 | 0.18 | 0.18 | 85 | 1012.6 |
| 20260903184003 | 0 | 0 | 0.0 | 0.0 | 0.00 | 0.00 | 0.00 | 1 | |
| 20260903183959 | 77 | 163 | 7.0 | 12.0 | 0.00 | 0.18 | 0.18 | 85 | 1012.7 |
| 20260903183003 | 0 | 0 | 0.0 | 0.0 | 0.00 | 0.00 | 0.00 | 1 | |
| 20260903182959 | 78 | 177 | 4.0 | 13.0 | 0.00 | 0.18 | 0.18 | 84 | 1012.7 |
| 20260903182024 | 0 | 0 | 0.0 | 0.0 | 0.00 | 0.00 | 0.00 | 1 | |
| 20260903182000 | 78 | 195 | 3.0 | 13.0 | 0.00 | 0.18 | 0.18 | 85 | 1012.7 |
| 20260903181003 | 0 | 0 | 0.0 | 0.0 | 0.00 | 0.00 | 0.00 | 1 | |
| 20260903180959 | 79 | 180 | 5.0 | 16.0 | 0.00 | 0.18 | 0.18 | 85 | 1012.8 |
| 20260903180020 | 78 | 160 | 5.0 | 16.0 | 0.00 | 0.18 | 0.18 | 85 | 1012.8 |
| 20260903180004 | 0 | 0 | 0.0 | 0.0 | 0.00 | 0.00 | 0.00 | 1 | |
| 20260903175021 | 78 | 180 | 9.0 | 16.0 | 0.00 | 0.18 | 0.18 | 86 | 1013.0 |
| 20260903175003 | 0 | 0 | 0.0 | 0.0 | 0.00 | 0.00 | 0.00 | 1 | |
| 20260903174024 | 0 | 0 | 0.0 | 0.0 | 0.00 | 0.00 | 0.00 | 1 | |
| 20260903174000 | 78 | 179 | 4.0 | 14.0 | 0.00 | 0.18 | 0.18 | 87 | 1013.1 |
| 20260903173024 | 0 | 0 | 0.0 | 0.0 | 0.00 | 0.00 | 0.00 | 1 | |
| 20260903173000 | 78 | 181 | 7.0 | 14.0 | 0.00 | 0.18 | 0.18 | 88 | 1013.2 |
| 20260903172004 | 0 | 0 | 0.0 | 0.0 | 0.00 | 0.00 | 0.00 | 1 | |
| 20260903171959 | 78 | 179 | 4.0 | 8.0 | 0.00 | 0.18 | 0.18 | 88 | 1013.2 |
| 20260903171003 | 0 | 0 | 0.0 | 0.0 | 0.00 | 0.00 | 0.00 | 1 | |
| 20260903171000 | 78 | 178 | 4.0 | 7.0 | 0.00 | 0.18 | 0.18 | 89 | 1013.1 |
| 20260903170024 | 0 | 0 | 0.0 | 0.0 | 0.00 | 0.00 | 0.00 | 1 | |
| 20260903170000 | 77 | 152 | 4.0 | 11.0 | 0.00 | 0.18 | 0.18 | 90 | 1013.1 |
| 20260903165003 | 0 | 0 | 0.0 | 0.0 | 0.00 | 0.00 | 0.00 | 1 | |
| 20260903165000 | 77 | 180 | 4.0 | 11.0 | 0.00 | 0.18 | 0.18 | 89 | 1013.1 |
| 20260903164024 | 0 | 0 | 0.0 | 0.0 | 0.00 | 0.00 | 0.00 | 1 | |
| 20260903164000 | 77 | 171 | 4.0 | 6.0 | 0.00 | 0.18 | 0.18 | 88 | 1013.0 |
| 20260903163024 | 0 | 0 | 0.0 | 0.0 | 0.00 | 0.00 | 0.00 | 1 | |
| 20260903163021 | 77 | 200 | 2.0 | 5.0 | 0.00 | 0.18 | 0.18 | 88 | 1013.1 |
| 20260903162003 | 0 | 0 | 0.0 | 0.0 | 0.00 | 0.00 | 0.00 | 1 | |
| 20260903162000 | 77 | 230 | 2.0 | 5.0 | 0.00 | 0.18 | 0.18 | 89 | 1013.0 |
| 20260903161003 | 0 | 0 | 0.0 | 0.0 | 0.00 | 0.00 | 0.00 | 1 | |
| 20260903161000 | 77 | 194 | 1.0 | 5.0 | 0.00 | 0.18 | 0.18 | 89 | 1013.1 |
| 20260903160024 | 0 | 0 | 0.0 | 0.0 | 0.00 | 0.00 | 0.00 | 1 | |
| 20260903160000 | 76 | 227 | 3.0 | 7.0 | 0.00 | 0.18 | 0.18 | 89 | 1013.2 |
| 20260903155024 | 0 | 0 | 0.0 | 0.0 | 0.00 | 0.00 | 0.00 | 1 | |
| 20260903155021 | 76 | 274 | 3.0 | 7.0 | 0.00 | 0.18 | 0.18 | 89 | 1013.3 |
| 20260903154003 | 0 | 0 | 0.0 | 0.0 | 0.00 | 0.00 | 0.00 | 1 | |
| 20260903154000 | 76 | 218 | 4.0 | 7.0 | 0.00 | 0.18 | 0.18 | 92 | 1013.5 |
| 20260903153003 | 0 | 0 | 0.0 | 0.0 | 0.00 | 0.00 | 0.00 | 1 | |
| 20260903153000 | 75 | 254 | 2.0 | 6.0 | 0.00 | 0.18 | 0.18 | 95 | 1013.5 |
| 20260903152024 | 0 | 0 | 0.0 | 0.0 | 0.00 | 0.00 | 0.00 | 1 | |
| 20260903152021 | 74 | 222 | 3.0 | 6.0 | 0.00 | 0.18 | 0.18 | 98 | 1013.7 |
| 20260903151024 | 0 | 0 | 0.0 | 0.0 | 0.00 | 0.00 | 0.00 | 1 | |
| 20260903151000 | 73 | 189 | 3.0 | 6.0 | 0.00 | 0.18 | 0.18 | 98 | 1014.0 |
| 20260903150003 | 0 | 0 | 0.0 | 0.0 | 0.00 | 0.00 | 0.00 | 1 | |
| 20260903150000 | 73 | 199 | 2.0 | 5.0 | 0.00 | 0.18 | 0.18 | 98 | 1014.3 |
| 20260903145003 | 0 | 0 | 0.0 | 0.0 | 0.00 | 0.00 | 0.00 | 1 | |
| 20260903145000 | 73 | 195 | 2.0 | 5.0 | 0.00 | 0.18 | 0.18 | 99 | 1014.3 |
| 20260903144004 | 0 | 0 | 0.0 | 0.0 | 0.00 | 0.00 | 0.00 | 1 | |
| 20260903144000 | 72 | 179 | 2.0 | 5.0 | 0.00 | 0.18 | 0.18 | 99 | 1014.2 |
| 20260903143003 | 0 | 0 | 0.0 | 0.0 | 0.00 | 0.00 | 0.00 | 1 | |
| 20260903143000 | 72 | 172 | 2.0 | 5.0 | 0.00 | 0.18 | 0.18 | 99 | 1014.3 |
| 20260903142003 | 0 | 0 | 0.0 | 0.0 | 0.00 | 0.00 | 0.00 | 1 | |
| 20260903142000 | 71 | 231 | 2.0 | 7.0 | 0.00 | 0.18 | 0.18 | 99 | 1014.7 |
| 20260903141003 | 0 | 0 | 0.0 | 0.0 | 0.00 | 0.00 | 0.00 | 1 | |
| 20260903140003 | 0 | 0 | 0.0 | 0.0 | 0.00 | 0.00 | 0.00 | 1 | |
| 20260903135003 | 0 | 0 | 0.0 | 0.0 | 0.00 | 0.00 | 0.00 | 1 | |
| 20260903134003 | 0 | 0 | 0.0 | 0.0 | 0.00 | 0.00 | 0.00 | 1 | |
| 20260903133003 | 0 | 0 | 0.0 | 0.0 | 0.00 | 0.00 | 0.00 | 1 | |
| 20260903132003 | 0 | 0 | 0.0 | 0.0 | 0.00 | 0.00 | 0.00 | 1 | |
| 20260903131004 | 0 | 0 | 0.0 | 0.0 | 0.00 | 0.00 | 0.00 | 1 | |
| 20260903130003 | 0 | 0 | 0.0 | 0.0 | 0.00 | 0.00 | 0.00 | 1 | |
| 20260903125003 | 0 | 0 | 0.0 | 0.0 | 0.00 | 0.00 | 0.00 | 1 | |
| 20260903124003 | 0 | 0 | 0.0 | 0.0 | 0.00 | 0.00 | 0.00 | 1 | |
| 20260903123003 | 0 | 0 | 0.0 | 0.0 | 0.00 | 0.00 | 0.00 | 1 | |
| 20260903122024 | 0 | 0 | 0.0 | 0.0 | 0.00 | 0.00 | 0.00 | 1 | |
| 20260903121024 | 0 | 0 | 0.0 | 0.0 | 0.00 | 0.00 | 0.00 | 1 | |
| 20260903120003 | 0 | 0 | 0.0 | 0.0 | 0.00 | 0.00 | 0.00 | 1 | |
| 20260903115003 | 0 | 0 | 0.0 | 0.0 | 0.00 | 0.00 | 0.00 | 1 | |
| 20260903114003 | 0 | 0 | 0.0 | 0.0 | 0.00 | 0.00 | 0.00 | 1 | |
| 20260903113003 | 0 | 0 | 0.0 | 0.0 | 0.00 | 0.00 | 0.00 | 1 | |
| 20260903112003 | 0 | 0 | 0.0 | 0.0 | 0.00 | 0.00 | 0.00 | 1 | |
| 20260903111003 | 0 | 0 | 0.0 | 0.0 | 0.00 | 0.00 | 0.00 | 1 | |
| 20260903110003 | 0 | 0 | 0.0 | 0.0 | 0.00 | 0.00 | 0.00 | 1 | |
| 20260903105146 | 67 | 174 | 8.0 | 17.0 | 0.08 | 0.15 | 0.15 | 98 | 1016.0 |
| 20260903105003 | 0 | 0 | 0.0 | 0.0 | 0.00 | 0.00 | 0.00 | 1 | |
| 20260903104003 | 0 | 0 | 0.0 | 0.0 | 0.00 | 0.00 | 0.00 | 1 | |
| 20260903103003 | 0 | 0 | 0.0 | 0.0 | 0.00 | 0.00 | 0.00 | 1 | |
| 20260903102024 | 0 | 0 | 0.0 | 0.0 | 0.00 | 0.00 | 0.00 | 1 | |
| 20260903101003 | 0 | 0 | 0.0 | 0.0 | 0.00 | 0.00 | 0.00 | 1 | |
| 20260903100003 | 0 | 0 | 0.0 | 0.0 | 0.00 | 0.00 | 0.00 | 1 | |
| 20260903095003 | 0 | 0 | 0.0 | 0.0 | 0.00 | 0.00 | 0.00 | 1 | |
| 20260903094003 | 0 | 0 | 0.0 | 0.0 | 0.00 | 0.00 | 0.00 | 1 | |
| 20260903093003 | 0 | 0 | 0.0 | 0.0 | 0.00 | 0.00 | 0.00 | 1 | |
| 20260903092158 | 67 | 161 | 8.0 | 13.0 | 0.01 | 0.02 | 0.02 | 93 | 1015.9 |
| 20260903092003 | 0 | 0 | 0.0 | 0.0 | 0.00 | 0.00 | 0.00 | 1 | |
| 20260903091003 | 0 | 0 | 0.0 | 0.0 | 0.00 | 0.00 | 0.00 | 1 | |
| 20260903090003 | 0 | 0 | 0.0 | 0.0 | 0.00 | 0.00 | 0.00 | 1 | |
| 20260903085003 | 0 | 0 | 0.0 | 0.0 | 0.00 | 0.00 | 0.00 | 1 | |
| 20260903084003 | 0 | 0 | 0.0 | 0.0 | 0.00 | 0.00 | 0.00 | 1 | |
| 20260903083024 | 0 | 0 | 0.0 | 0.0 | 0.00 | 0.00 | 0.00 | 1 | |
| 20260903082024 | 0 | 0 | 0.0 | 0.0 | 0.00 | 0.00 | 0.00 | 1 | |
| 20260903081129 | 66 | 151 | 5.0 | 8.0 | 0.01 | 0.01 | 0.01 | 91 | 1016.7 |
| 20260903081003 | 0 | 0 | 0.0 | 0.0 | 0.00 | 0.00 | 0.00 | 1 | |
| 20260903080003 | 0 | 0 | 0.0 | 0.0 | 0.00 | 0.00 | 0.00 | 1 | |
| 20260903075003 | 0 | 0 | 0.0 | 0.0 | 0.00 | 0.00 | 0.00 | 1 | |
| 20260903074003 | 0 | 0 | 0.0 | 0.0 | 0.00 | 0.00 | 0.00 | 1 | |
| 20260903073130 | 66 | 164 | 3.0 | 11.0 | 0.00 | 0.00 | 0.00 | 88 | 1017.0 |
| 20260903073003 | 0 | 0 | 0.0 | 0.0 | 0.00 | 0.00 | 0.00 | 1 | |
| 20260903072003 | 0 | 0 | 0.0 | 0.0 | 0.00 | 0.00 | 0.00 | 1 | |
| 20260903071024 | 0 | 0 | 0.0 | 0.0 | 0.00 | 0.00 | 0.00 | 1 | |
| 20260903070024 | 0 | 0 | 0.0 | 0.0 | 0.00 | 0.00 | 0.00 | 1 | |
| 20260903065003 | 0 | 0 | 0.0 | 0.0 | 0.00 | 0.00 | 0.00 | 1 | |
| 20260903064024 | 0 | 0 | 0.0 | 0.0 | 0.00 | 0.00 | 0.00 | 1 | |
| 20260903063003 | 0 | 0 | 0.0 | 0.0 | 0.00 | 0.00 | 0.00 | 1 | |
| 20260903062003 | 0 | 0 | 0.0 | 0.0 | 0.00 | 0.00 | 0.00 | 1 | |
| 20260903061003 | 0 | 0 | 0.0 | 0.0 | 0.00 | 0.00 | 0.00 | 1 | |
| 20260903060024 | 0 | 0 | 0.0 | 0.0 | 0.00 | 0.00 | 0.00 | 1 | |
| 20260903055003 | 0 | 0 | 0.0 | 0.0 | 0.00 | 0.00 | 0.00 | 1 | |
| 20260903054024 | 0 | 0 | 0.0 | 0.0 | 0.00 | 0.00 | 0.00 | 1 | |
| 20260903053003 | 0 | 0 | 0.0 | 0.0 | 0.00 | 0.00 | 0.00 | 1 | |
| 20260903052135 | 64 | 191 | 3.0 | 8.0 | 0.00 | 0.00 | 0.00 | 87 | 1019.0 |
| 20260903052024 | 0 | 0 | 0.0 | 0.0 | 0.00 | 0.00 | 0.00 | 1 |